DW9771 Weather Reports


time (UTC)temp
F
wind
direction
speed
knots
gust
knots
rain 1hr
in
rain 24hr
in
rain mn
in
humidity
%
barometer
mb
20260506213013 56 115 0.9 3.5 0.00 0.00 0.00 85 1022.1
20260506211506 56 232 0.9 3.5 0.00 0.00 0.00 84 1022.2
20260506210003 56 156 0.9 3.5 0.00 0.00 0.00 84 1022.1
20260506204504 56 93 0.9 3.5 0.00 0.00 0.00 83 1022.1
20260506203002 56 162 1.7 3.5 0.00 0.00 0.00 83 1022.0
20260506201501 56 312 1.7 4.3 0.00 0.00 0.00 83 1021.9
20260506200059 56 292 0.0 3.5 0.00 0.00 0.00 83 1021.9
20260506194556 55 102 0.9 5.2 0.00 0.00 0.00 85 1021.8
20260506193055 54 105 0.9 3.5 0.00 0.00 0.00 87 1021.7
20260506191552 54 359 0.0 3.5 0.00 0.00 0.00 90 1021.6
20260506190049 53 73 0.0 2.6 0.00 0.00 0.00 92 1021.5
20260506184552 53 345 0.0 2.6 0.00 0.00 0.00 93 1021.4
20260506183049 52 19 0.9 3.5 0.00 0.00 0.00 92 1021.4
20260506181548 52 262 0.0 1.7 0.00 0.00 0.00 92 1021.3
20260506180046 52 342 0.9 2.6 0.00 0.00 0.00 91 1021.3
20260506174545 52 290 0.9 2.6 0.00 0.00 0.00 91 1021.4
20260506173059 52 350 1.7 3.5 0.00 0.00 0.00 90 1021.4
20260506171552 52 302 1.7 2.6 0.00 0.00 0.00 89 1021.1
20260506170040 53 272 0.9 3.5 0.00 0.00 0.00 89 1021.0
20260506164538 53 155 0.0 1.7 0.00 0.00 0.00 86 1020.9
20260506163052 53 238 0.0 1.7 0.00 0.00 0.00 86 1020.8
20260506161542 53 131 0.0 0.9 0.00 0.00 0.00 86 1020.8
20260506160037 53 115 0.9 2.6 0.00 0.00 0.00 85 1020.8
20260506154538 53 259 0.0 1.7 0.00 0.00 0.00 85 1020.7
20260506153039 53 200 0.9 2.6 0.00 0.00 0.00 85 1020.6
20260506151532 53 51 0.0 3.5 0.00 0.00 0.00 84 1020.4
20260506150032 52 243 0.0 1.7 0.00 0.00 0.00 84 1020.3
20260506144528 52 232 0.0 3.5 0.00 0.00 0.00 84 1020.2
20260506143027 52 41 0.0 1.7 0.00 0.00 0.00 84 1019.9
20260506141526 52 86 0.0 1.7 0.00 0.00 0.00 84 1019.8
20260506140025 52 120 0.0 1.7 0.00 0.00 0.00 84 1019.8
20260506134524 52 158 0.0 1.7 0.00 0.00 0.00 84 1019.7
20260506133023 52 319 0.0 0.9 0.00 0.00 0.00 85 1019.4
20260506131520 52 222 0.0 3.5 0.00 0.00 0.00 85 1019.3
20260506130020 52 193 0.9 3.5 0.00 0.00 0.00 85 1019.2
20260506124519 52 245 0.0 1.7 0.00 0.00 0.00 85 1019.4
20260506123018 52 328 1.7 2.6 0.00 0.00 0.00 86 1019.4
20260506121517 52 12 0.0 3.5 0.00 0.00 0.00 86 1019.3
20260506120016 52 146 0.0 2.6 0.00 0.00 0.00 86 1019.4
20260506114513 52 321 0.0 0.9 0.00 0.00 0.00 86 1019.0
20260506113016 52 274 0.0 1.7 0.00 0.00 0.00 86 1019.2
20260506111512 52 344 0.9 2.6 0.00 0.00 0.00 86 1019.1
20260506110011 53 20 0.9 3.5 0.00 0.00 0.00 86 1019.1
20260506104510 53 331 0.0 1.7 0.00 0.00 0.00 86 1018.9
20260506103008 52 240 0.9 3.5 0.00 0.00 0.00 86 1018.8
20260506101505 52 330 0.0 2.6 0.00 0.00 0.00 87 1018.7
20260506100005 52 325 0.0 2.6 0.00 0.00 0.00 87 1018.6
20260506094507 52 333 0.0 1.7 0.00 0.00 0.00 87 1018.7
20260506093011 52 302 0.0 2.6 0.00 0.00 0.00 87 1018.7
20260506091503 53 63 0.9 3.5 0.00 0.00 0.00 87 1018.5
20260506090001 53 283 0.0 1.7 0.00 0.00 0.00 86 1018.4
20260506084601 53 321 0.9 5.2 0.00 0.00 0.00 86 1018.3
20260506083058 53 338 0.0 0.9 0.00 0.00 0.00 87 1018.2
20260506081558 53 243 0.0 0.9 0.00 0.00 0.00 87 1018.3
20260506080112 53 295 0.0 2.6 0.00 0.00 0.00 86 1018.2
20260506073103 53 343 0.9 2.6 0.00 0.00 0.00 86 1017.7
20260506071549 53 356 0.0 4.3 0.00 0.00 0.00 86 1017.6
20260506061556 53 359 0.0 3.5 0.00 0.00 0.00 86 1017.6
20260506044540 54 293 0.0 2.6 0.00 0.00 0.00 84 1017.4
20260506043038 54 321 0.0 2.6 0.00 0.00 0.00 84 1017.3
20260506041540 54 330 0.0 1.7 0.00 0.00 0.00 84 1017.1
20260506040037 54 238 0.0 0.9 0.00 0.00 0.00 83 1016.9
20260506034536 54 204 0.0 0.9 0.00 0.00 0.00 83 1016.7
20260506033036 54 98 0.0 2.6 0.00 0.00 0.00 83 1016.7
20260506031536 55 193 0.0 1.7 0.00 0.00 0.00 83 1016.6
20260506030036 55 146 0.0 1.7 0.00 0.00 0.00 82 1016.7
20260506024535 55 50 0.0 2.6 0.00 0.00 0.00 82 1016.5
20260506023047 56 347 0.0 2.6 0.00 0.00 0.00 82 1016.4
20260506021534 56 156 0.0 4.3 0.00 0.00 0.00 81 1016.4
20260506020106 56 297 0.0 2.6 0.00 0.00 0.00 82 1016.5
20260506014533 56 343 0.9 4.3 0.00 0.00 0.00 82 1016.5
20260506013033 56 341 0.9 5.2 0.00 0.00 0.00 82 1016.5
20260506011534 56 301 0.9 3.5 0.00 0.00 0.00 82 1016.4
20260506010031 57 340 1.7 4.3 0.00 0.00 0.00 82 1016.5
20260506004539 57 338 1.7 4.3 0.00 0.00 0.00 82 1016.5
20260506003030 57 326 1.7 4.3 0.00 0.00 0.00 81 1016.5
20260506001529 58 311 0.9 4.3 0.00 0.00 0.00 80 1016.5
20260506000043 58 13 1.7 5.2 0.00 0.00 0.00 80 1016.6
20260505234527 58 340 0.9 5.2 0.00 0.00 0.00 80 1016.7
20260505233028 58 345 0.9 4.3 0.00 0.00 0.00 80 1016.8
20260505231529 59 9 0.9 3.5 0.00 0.00 0.00 79 1016.9
20260505230039 60 276 0.9 3.5 0.00 0.00 0.00 77 1016.9
20260505224525 60 46 1.7 5.2 0.00 0.00 0.00 77 1016.9
20260505223024 60 331 0.9 4.3 0.00 0.00 0.00 76 1017.0
20260505221524 60 187 0.9 3.5 0.00 0.00 0.00 76 1017.1
20260505220023 61 271 0.9 3.5 0.00 0.00 0.00 75 1017.2
20260505214524 61 278 0.9 2.6 0.00 0.00 0.00 74 1017.2